Location: Arboucave
(43.6130°N, 0.4343°W)
Time: 08:20:23
(UTC+00:00)

SL-19 R/B - Pass Details

Date: 17 November 2025
Orbit: 795 x 1008 km, 99.6° (Epoch: 13 December)

Event Time Altitude Azimuth Distance (km) Brightness Sun altitude
Rises 18:06:59 0° 151° (SSE) 3,313 7.1 -16.7°
Reaches altitude 10° 18:09:21 10° 147° (SSE) 2,373 6.3 -17.1°
Maximum altitude 18:14:25 57° 70° (ENE) 935 4.1 -18.0°
Drops below altitude 10° 18:19:32 10° 353° (N) 2,384 6.5 -18.9°
Sets 18:21:54 0° 349° (N) 3,330 7.3 -19.3°
